GFSNW_700_rhum_090.txt.gz
RH
55 18 24 30 34 37 46 53 58 64 75 87 99 94 90 79 79 88 72 74 77 84 92 84 87 95 95 86 84 95 96 85 87 80 76 78 78 70 58 58 60 52 67 98
58 62 47 35 47 50 48 44 58 65 84 98 98 100 83 96 100 95 76 58 70 85 89 87 93 96 69 71 75 78 77 80 81 78 76 66 77 59 51 56 53 56 72 92
60 62 66 64 56 56 56 55 69 80 91 95 98 93 85 76 68 58 57 66 79 85 82 84 73 82 62 60 65 67 67 76 76 80 80 81 75 63 53 54 55 65 72 90
50 62 59 59 62 68 63 64 65 74 82 87 82 78 93 82 62 56 65 80 87 79 82 72 60 55 61 52 62 61 63 62 62 74 71 72 64 75 58 55 57 62 75 72
60 48 56 59 51 64 66 56 68 56 61 78 79 82 95 69 60 81 84 82 76 74 69 72 71 56 44 33 61 52 54 56 63 68 61 69 62 51 55 56 63 64 72 84
71 67 60 63 54 39 50 62 48 59 57 90 78 66 72 67 68 72 60 60 57 45 46 44 40 36 34 31 31 39 50 54 55 78 54 57 71 53 55 60 56 66 73 79
69 67 61 44 39 30 25 56 36 60 55 79 64 58 63 60 58 46 50 54 51 44 38 38 39 39 38 38 34 35 48 54 54 53 61 80 59 51 52 54 53 55 59 63
60 62 60 46 15 21 23 29 41 42 53 52 52 54 59 58 52 54 51 48 50 46 42 42 64 60 53 49 34 36 42 58 80 63 69 55 60 51 49 50 62 53 51 53
63 65 57 54 28 13 20 24 33 29 52 59 48 50 54 78 57 53 51 54 54 48 45 63 66 59 52 59 45 34 36 49 60 77 70 58 62 51 50 48 56 50 49 49
56 61 69 59 49 34 14 18 38 48 42 46 51 47 56 61 61 68 59 59 55 51 59 72 63 63 43 55 48 43 35 39 58 68 68 58 58 50 49 43 56 50 44 41
27 54 60 67 60 55 56 22 20 26 42 42 48 53 55 59 64 66 62 63 64 62 61 62 73 52 62 42 49 40 37 49 60 59 60 61 40 35 33 46 42 37 37 37
11 28 53 65 69 62 66 66 24 20 25 43 53 57 60 68 70 71 66 71 68 64 62 66 58 54 58 49 50 54 40 34 56 52 55 53 35 34 36 38 34 33 34 32
9 12 34 59 66 73 76 73 67 20 25 26 40 61 72 75 73 71 73 72 72 68 56 58 64 56 61 57 63 63 44 39 40 36 36 34 33 33 31 31 30 29 28 24
7 11 14 42 62 70 70 74 68 30 23 29 35 38 58 74 78 75 70 68 70 69 68 63 63 63 63 58 57 53 46 44 38 31 29 29 28 24 24 26 25 24 23 22
5 10 13 17 48 66 69 70 67 40 30 27 26 28 31 34 52 71 74 70 70 67 71 78 75 64 66 56 52 33 30 28 32 27 26 25 22 24 20 18 19 19 20 20
5 9 12 15 34 60 69 72 58 54 38 31 37 27 26 33 41 38 53 69 80 86 84 83 80 70 75 72 60 19 25 26 22 18 23 22 20 18 18 18 19 18 18 16
4 7 12 13 26 60 64 49 38 30 23 31 35 31 29 29 31 40 46 52 69 83 90 85 83 69 78 76 42 21 27 28 30 30 30 24 22 20 19 16 18 18 17 16
4 6 12 14 18 40 69 57 37 33 34 40 31 30 29 29 32 35 44 57 60 68 82 79 72 67 62 60 17 19 17 18 19 22 19 16 16 15 16 19 18 17 17 14
4 5 11 14 19 32 68 79 77 66 58 48 47 48 42 39 36 37 43 58 72 69 59 60 72 69 58 27 20 23 24 17 12 12 14 16 18 20 20 19 18 16 13 9
5 5 8 15 26 34 46 69 78 82 76 74 65 63 58 60 55 46 38 72 74 87 71 63 59 27 17 21 28 30 25 16 16 17 19 22 23 22 19 18 16 12 7 5
6 7 10 15 25 39 57 72 74 71 65 62 58 53 48 56 63 51 46 63 67 69 64 62 50 17 16 11 12 16 21 24 22 22 24 22 21 19 18 14 10 6 4 3
9 12 12 15 27 43 72 70 63 64 59 55 45 30 24 28 42 56 60 59 56 56 61 55 33 11 8 12 9 9 10 11 15 19 20 20 19 18 13 8 5 4 4 6
9 18 20 17 32 49 70 67 57 56 56 49 36 34 26 26 37 51 55 62 58 52 50 32 21 14 8 10 8 10 16 18 20 21 21 19 16 12 7 5 4 4 6 8
13 24 21 16 28 29 32 39 53 57 56 42 43 45 33 26 37 50 56 57 54 44 28 21 16 11 10 9 13 16 20 23 24 21 19 15 10 6 5 4 5 6 9 15
16 17 16 13 14 19 33 45 56 61 59 56 54 52 48 35 35 51 50 50 35 32 17 16 16 12 11 13 18 21 24 25 22 19 14 9 6 5 4 5 6 9 14 18
14 11 11 8 11 18 26 38 52 55 58 66 67 51 47 46 43 44 45 47 25 14 16 18 16 15 15 20 23 25 26 23 19 14 8 7 6 4 5 6 8 14 18 17
20 10 7 7 7 13 28 37 47 62 64 71 72 52 57 51 48 45 42 40 32 29 33 23 20 17 20 23 25 26 24 20 15 9 6 6 5 5 5 7 12 18 18 18

GFSNW_700_rhum_093.txt.gz
RH
54 25 32 43 50 41 55 49 59 68 62 65 64 74 83 86 86 79 77 78 83 85 78 82 84 91 90 80 87 94 98 95 86 78 82 79 78 70 63 63 65 63 73 98
47 52 44 44 44 52 48 48 62 63 58 60 61 63 73 86 66 63 68 75 74 77 83 83 88 73 69 74 77 78 78 77 83 74 71 65 75 61 51 53 62 77 83 94
46 35 56 54 57 62 50 49 67 69 71 60 71 81 77 79 75 70 69 82 85 85 82 79 73 60 53 64 68 69 79 81 72 82 82 85 80 65 55 47 61 78 83 95
52 52 34 59 61 66 62 55 68 79 90 88 85 81 80 56 67 69 64 76 80 81 81 68 57 50 51 56 62 66 66 60 62 59 62 67 69 66 59 59 60 63 85 79
66 53 32 31 41 55 63 59 66 74 80 91 83 64 61 45 47 52 61 69 71 72 64 58 54 55 44 33 47 50 55 52 53 66 60 62 63 56 54 66 74 76 73 76
62 58 24 13 24 36 42 51 63 71 70 71 71 50 42 38 40 50 54 46 50 52 55 54 40 34 36 34 32 35 43 46 46 51 53 54 65 51 56 56 70 78 74 71
58 62 52 14 14 19 37 30 36 59 73 64 68 52 45 34 34 45 47 46 40 39 39 40 39 40 37 38 36 33 37 44 47 45 60 78 53 44 51 55 59 61 70 66
61 59 60 42 13 13 17 28 33 31 53 67 62 59 53 41 33 35 37 39 40 37 35 36 38 53 51 49 41 41 45 52 57 64 61 62 58 50 49 49 57 55 57 64
38 60 60 57 40 23 13 18 22 31 36 42 52 60 59 53 45 38 30 31 36 35 34 37 48 51 45 43 37 40 34 49 57 72 74 64 59 52 47 46 42 50 45 50
9 34 59 63 54 52 41 22 19 21 25 48 43 44 56 68 61 48 46 47 40 36 38 46 54 56 51 40 44 38 34 46 51 68 71 55 57 50 54 44 49 44 39 40
6 10 31 58 63 56 64 56 28 18 21 21 30 48 49 58 69 72 64 56 58 54 57 58 64 57 50 48 39 42 40 36 50 60 63 50 42 36 35 38 35 37 37 38
5 6 10 28 54 66 65 68 66 31 18 23 22 32 46 59 62 66 74 73 79 79 71 75 66 62 51 50 43 35 40 31 36 45 34 40 41 32 30 31 30 32 32 32
4 5 6 10 25 54 66 74 72 64 25 25 22 24 28 39 54 66 70 70 71 80 74 68 70 60 55 56 48 49 45 44 42 34 25 26 32 30 30 30 32 34 31 30
4 4 5 7 12 35 62 64 75 72 39 30 27 21 21 28 35 49 60 71 69 67 71 78 77 66 56 53 51 49 43 43 39 31 26 30 27 27 30 31 27 26 25 25
4 4 4 6 10 15 46 65 67 71 46 34 32 32 24 22 23 27 35 48 66 73 73 69 68 72 73 65 60 36 32 32 37 28 30 29 27 28 31 28 25 24 24 24
3 4 4 5 8 14 31 62 67 64 54 46 28 32 35 28 24 28 34 33 39 61 75 76 75 63 78 84 78 30 26 29 29 25 24 26 25 23 24 25 26 24 22 21
4 4 4 4 6 12 32 50 48 45 34 30 33 33 32 26 26 28 30 38 44 46 53 63 64 65 86 84 34 17 26 33 33 33 36 32 32 34 30 23 21 21 22 20
4 4 4 5 5 9 17 34 55 52 41 38 42 38 41 39 38 36 32 36 44 48 56 48 48 64 64 55 18 20 19 20 19 25 27 30 31 32 27 20 20 22 21 18
5 4 4 6 6 8 16 20 35 66 67 57 55 52 47 55 45 46 51 49 43 56 51 54 66 53 35 16 25 26 28 25 23 16 18 18 18 20 22 24 23 21 18 14
6 4 6 7 10 10 12 15 23 53 65 77 63 62 66 67 64 64 60 59 60 76 64 66 57 19 17 21 21 27 40 40 27 26 21 22 26 28 26 25 20 18 13 8
8 6 6 9 10 13 14 26 35 51 57 56 57 59 51 52 55 61 60 59 59 66 63 55 48 19 14 12 14 16 19 36 43 39 36 37 36 33 26 20 18 12 7 5
10 8 10 10 13 14 20 39 39 39 54 52 55 46 32 27 28 44 58 58 58 55 59 54 35 22 20 15 10 12 15 24 29 33 35 38 35 26 20 17 11 6 5 4
11 9 10 11 18 23 22 28 28 29 39 46 51 42 40 34 30 44 53 59 62 58 56 40 26 22 17 13 11 11 12 16 18 22 26 25 21 20 15 9 6 5 4 5
13 12 12 12 16 12 10 10 14 24 41 50 52 44 48 45 30 38 52 56 53 52 42 28 21 20 17 12 12 13 18 20 23 23 22 21 18 14 8 6 5 5 6 6
15 13 13 11 13 10 9 9 13 21 37 51 56 57 57 51 39 38 42 45 48 42 31 20 18 23 22 19 14 19 21 23 26 24 22 18 12 7 6 5 5 6 7 11
20 14 18 13 10 10 9 12 18 22 34 47 55 62 60 52 52 50 39 45 35 29 22 18 24 33 31 24 19 22 23 25 25 23 19 13 7 6 5 5 6 6 9 15
40 23 24 14 12 11 13 15 19 22 30 44 58 67 62 59 55 51 50 40 38 44 44 40 38 33 42 38 22 23 24 26 25 21 16 8 7 6 6 6 6 7 11 16

GFSNW_700_rhum_096.txt.gz
RH
53 46 37 45 57 58 58 63 65 71 68 56 61 90 97 80 85 84 84 80 80 86 86 83 83 83 85 82 81 96 99 94 83 71 82 78 66 74 72 72 65 74 78 98
29 47 50 51 48 54 64 47 61 62 55 53 62 73 73 69 75 75 80 82 82 80 77 76 76 68 65 71 74 79 83 84 83 57 68 66 59 60 63 58 67 86 88 96
42 24 40 47 53 47 56 57 59 54 56 73 69 66 60 64 64 71 69 75 72 72 79 82 70 60 68 64 70 75 83 82 69 75 71 81 69 59 56 50 61 79 84 83
55 29 20 28 42 49 50 56 52 53 75 70 72 66 63 63 68 64 63 68 66 64 65 62 56 50 55 65 67 66 68 67 61 60 63 70 63 57 62 53 59 65 73 78
52 32 15 16 22 40 49 54 60 58 62 60 60 55 57 60 56 57 56 60 61 61 55 47 32 36 35 32 41 51 60 63 55 47 59 60 60 54 63 66 64 62 67 64
53 49 24 12 14 20 35 41 50 54 41 53 59 51 44 48 50 50 51 53 52 50 47 34 28 31 33 34 38 40 48 49 50 46 49 56 64 49 51 52 69 73 77 69
50 53 49 29 14 13 17 31 40 42 46 45 41 45 44 43 46 50 49 47 44 42 40 36 34 34 34 34 35 36 40 44 47 46 49 71 60 50 48 55 56 55 57 59
17 46 53 50 44 15 15 14 20 29 34 38 43 44 33 29 34 45 48 45 45 40 37 34 33 37 40 39 41 38 37 46 52 61 66 46 51 52 47 44 41 46 47 53
6 14 42 54 52 53 24 16 15 17 22 29 35 34 36 36 30 29 31 35 40 40 38 38 40 36 49 34 36 41 48 49 56 69 77 66 52 50 44 47 41 32 40 40
4 7 11 38 57 56 58 48 21 17 21 22 26 32 38 35 35 37 39 37 36 35 37 44 50 47 50 40 36 36 40 42 51 53 70 44 43 57 46 51 36 46 38 34
4 5 7 10 34 61 61 61 64 48 18 20 24 25 30 32 34 38 46 48 47 48 48 53 57 64 53 53 44 37 42 37 41 59 65 53 34 34 34 29 31 31 32 35
4 4 7 7 9 30 60 65 65 70 65 26 21 23 32 39 38 46 44 46 51 59 60 71 71 68 63 55 56 43 43 36 33 41 34 34 42 41 37 33 32 33 34 33
4 4 5 7 8 9 28 56 62 68 66 50 33 26 31 47 53 56 58 60 60 56 57 65 74 71 66 66 54 48 41 44 51 46 29 26 30 33 34 33 33 32 31 30
6 4 4 6 8 9 10 26 53 63 68 65 44 31 24 25 34 47 56 66 72 73 70 72 71 64 58 59 59 57 51 46 37 33 27 32 32 30 33 32 33 33 32 32
10 5 4 5 6 9 8 11 34 57 66 62 50 45 41 35 30 26 32 47 62 77 84 82 77 64 65 60 57 32 24 27 41 29 32 37 35 39 38 39 42 37 30 28
16 6 4 4 6 8 8 11 25 45 61 62 50 36 34 33 33 33 31 33 44 61 71 74 60 52 74 79 64 19 16 21 30 34 40 39 33 34 39 37 38 39 36 32
26 9 4 4 5 8 10 14 17 33 46 47 36 36 38 35 26 29 30 32 34 42 58 50 47 51 74 78 28 18 27 32 35 35 44 46 42 43 44 43 45 45 38 32
41 13 6 4 5 7 10 10 17 26 44 50 47 40 43 44 45 47 48 40 40 44 50 51 51 60 60 46 21 28 30 30 28 31 29 32 52 52 51 50 47 37 28 28
58 19 8 5 5 7 10 13 15 22 38 59 45 44 50 54 56 57 56 59 59 62 58 59 64 58 44 25 27 31 42 45 45 38 34 26 47 49 46 39 31 31 32 27
66 31 10 6 6 8 12 16 17 24 37 47 26 33 51 55 61 64 65 59 57 59 62 60 52 41 33 24 20 16 15 25 36 52 39 33 29 30 32 36 37 34 26 19
80 49 15 12 11 10 10 15 17 27 36 31 35 41 49 51 49 45 45 50 53 61 60 58 48 35 32 29 20 14 13 17 21 48 47 41 44 47 53 47 35 24 17 8
96 67 25 15 16 16 12 13 18 15 26 24 32 42 44 39 36 30 41 50 55 57 60 54 42 33 26 19 14 12 11 12 25 46 58 54 50 48 45 30 20 14 7 5
98 92 27 15 20 20 15 15 14 11 11 14 24 33 41 43 42 34 38 51 57 59 60 46 34 22 21 24 16 11 11 17 20 31 42 42 38 30 22 18 11 7 6 5
98 94 35 19 24 20 18 13 11 11 8 12 24 40 45 46 50 45 39 49 51 55 53 34 32 21 21 30 29 19 15 20 22 25 25 23 22 20 16 9 6 6 5 5
98 91 47 21 22 17 11 12 12 11 9 18 34 45 47 53 53 48 42 43 42 43 32 30 27 21 21 31 34 37 26 21 23 26 25 23 19 14 8 6 6 6 6 6
97 93 59 31 21 20 17 11 11 11 11 22 38 48 51 53 51 51 44 42 32 27 33 36 36 37 41 43 40 44 36 23 24 26 26 22 18 10 6 6 6 7 6 6
92 89 87 49 35 18 17 16 15 20 18 25 41 44 44 46 48 50 46 21 19 30 36 41 45 40 37 36 40 45 47 34 26 26 26 22 17 9 6 9 39 16 8 7

GFSNW_700_rhum_099.txt.gz
RH
40 44 49 47 44 52 54 52 61 58 46 35 48 76 85 89 90 88 86 81 82 87 86 91 90 87 85 83 88 98 97 89 70 52 70 75 69 74 85 95 72 79 84 96
17 21 33 44 40 45 49 54 62 56 45 42 54 68 73 75 76 76 77 80 75 83 85 82 81 73 70 69 73 72 73 73 68 45 55 57 54 61 78 71 79 85 90 86
17 14 18 32 38 44 43 45 53 49 38 45 49 54 60 69 72 74 76 76 76 79 80 73 59 57 70 68 68 71 78 80 67 63 57 64 52 49 64 62 66 76 75 73
34 14 13 18 28 33 31 31 36 42 52 49 55 63 69 69 71 71 72 74 70 66 60 54 46 51 55 60 62 66 68 61 55 48 57 61 56 56 58 60 60 68 66 68
50 36 13 13 16 25 34 32 37 42 45 49 50 52 59 61 58 60 60 67 68 60 57 58 38 39 35 34 39 44 54 61 55 29 39 55 53 54 58 64 59 61 61 60
39 49 45 16 13 15 24 24 25 33 36 38 40 42 43 46 50 52 57 59 60 58 54 46 35 32 34 37 39 42 51 56 57 42 54 50 57 36 49 51 53 52 55 63
6 32 50 50 25 12 14 21 23 26 27 31 38 35 34 35 43 46 47 46 46 43 42 40 36 34 34 34 39 45 46 58 65 54 46 63 50 43 47 43 46 48 50 52
4 5 24 47 51 44 13 16 18 18 20 24 27 30 33 30 31 34 40 39 38 39 36 35 30 28 31 38 45 55 55 54 62 59 71 32 25 34 48 46 36 43 45 44
4 4 6 17 45 54 54 23 15 17 18 18 19 24 26 33 34 29 30 32 32 33 35 34 36 29 32 32 35 38 45 52 59 66 72 62 37 46 42 41 30 30 36 42
8 4 4 6 12 40 57 57 55 29 16 16 19 20 21 21 25 29 31 32 28 28 30 31 35 37 39 39 38 38 44 46 48 60 73 32 28 41 52 38 28 38 36 30
26 6 4 5 6 11 34 54 59 62 62 49 23 17 22 22 24 22 28 33 34 41 43 44 44 53 48 46 39 38 40 40 40 60 68 53 31 40 35 27 26 26 29 31
47 16 5 5 5 5 10 29 52 60 62 64 63 30 19 19 23 38 39 47 49 55 56 67 70 62 64 56 60 45 43 32 33 34 28 29 30 35 38 35 36 34 32 31
53 32 10 4 6 5 6 11 29 50 57 60 59 39 32 27 21 30 39 41 50 61 67 76 79 77 76 77 65 62 52 48 45 40 22 27 27 33 34 39 37 35 34 32
54 52 19 6 5 6 6 7 13 28 41 50 52 54 37 28 26 24 29 36 47 57 72 76 72 65 64 58 54 48 49 55 53 50 30 35 33 36 36 37 34 37 40 39
68 55 41 11 5 6 8 8 9 20 34 37 44 52 53 50 46 39 34 34 43 54 55 54 55 54 71 63 55 24 26 33 47 40 33 42 31 34 33 39 40 40 39 38
92 60 56 26 7 5 6 9 16 21 26 36 36 29 34 37 36 35 36 38 37 40 38 38 35 37 72 66 41 30 32 43 63 65 57 55 49 45 44 36 41 44 38 39
100 78 60 50 16 6 6 11 14 20 28 35 36 31 31 37 38 32 32 34 36 40 43 41 40 43 71 64 48 41 37 32 38 53 66 70 62 70 72 60 52 44 44 46
100 98 65 62 34 10 6 7 10 14 34 49 41 33 25 29 35 42 45 50 49 47 50 54 56 61 71 61 41 37 34 28 35 41 41 38 40 52 71 79 76 69 60 52
100 100 86 67 58 22 9 9 11 16 25 42 34 25 29 31 37 48 53 56 60 62 57 59 62 57 48 41 34 24 22 16 13 16 45 51 45 34 50 82 78 65 45 34
100 100 99 83 67 42 16 13 19 19 22 27 21 24 33 30 43 55 60 57 55 63 58 61 50 32 36 34 31 28 22 17 13 13 26 59 55 38 50 52 41 40 40 36
100 100 100 98 83 48 19 14 14 23 23 21 20 17 28 39 47 54 46 43 45 53 56 58 49 33 34 24 20 15 11 10 10 11 23 57 54 39 44 59 60 52 40 25
100 100 99 99 97 63 19 13 16 16 19 18 12 30 34 44 39 38 37 39 44 50 58 54 44 33 29 21 29 31 21 11 15 16 31 60 58 54 58 62 54 34 20 8
100 100 98 97 90 61 20 15 18 18 18 14 13 22 32 34 38 39 37 38 44 53 53 46 27 30 29 21 19 24 31 26 19 22 26 38 57 62 59 40 23 14 6 6
99 99 98 93 72 56 56 52 29 18 15 15 17 25 26 34 38 38 46 46 47 49 50 28 25 28 29 27 20 22 25 31 35 22 25 26 24 24 23 19 10 6 6 6
98 98 87 82 79 62 35 24 24 22 18 20 25 28 32 39 43 42 40 43 45 42 28 22 26 28 30 32 36 42 43 42 39 24 24 26 26 22 18 11 6 6 7 28
97 97 87 80 77 69 61 53 34 33 20 27 35 39 42 46 40 43 42 41 29 16 19 24 28 28 28 29 34 40 36 35 40 44 31 26 27 24 18 9 6 8 39 58
98 82 82 97 76 66 55 38 32 37 37 33 36 38 29 34 38 41 32 16 15 17 19 24 28 30 34 32 31 33 34 41 44 44 43 29 27 26 21 12 6 34 59 62

GFSNW_700_rhum_102.txt.gz
RH
24 22 21 25 34 40 46 40 46 53 48 31 36 59 74 85 85 77 77 78 82 80 76 77 77 79 82 86 93 99 100 100 85 48 59 64 72 70 75 91 78 84 93 82
14 21 16 18 21 26 31 29 37 35 32 38 54 70 74 78 76 74 78 80 79 75 75 71 70 70 74 75 82 84 87 83 72 38 52 53 56 61 70 78 88 85 92 73
24 12 17 13 14 17 21 25 29 32 35 44 54 61 64 66 74 71 71 71 71 73 76 78 74 61 69 74 79 82 82 74 72 58 52 57 53 53 67 77 78 74 68 64
45 32 10 17 15 14 19 22 30 36 40 43 48 52 62 64 66 68 69 73 76 77 72 67 57 53 58 60 67 70 79 60 58 43 37 46 43 43 53 66 73 71 57 60
15 44 42 11 14 17 16 18 24 28 35 40 44 49 55 54 53 58 60 68 70 70 64 61 52 41 44 40 41 47 56 60 55 26 25 34 38 39 44 56 62 62 60 54
4 8 37 47 21 11 17 16 18 22 25 29 33 35 36 41 47 53 55 57 59 58 54 52 45 39 37 39 42 48 56 57 62 49 37 45 42 30 25 36 50 57 56 54
7 4 5 28 49 34 11 17 23 22 20 21 25 26 26 27 30 36 43 46 46 45 45 41 38 34 34 35 40 53 57 67 66 64 48 64 29 41 30 36 43 46 46 49
33 6 4 4 21 50 47 13 14 17 18 20 21 22 22 22 21 22 25 29 32 32 33 34 33 28 30 40 45 53 70 75 59 61 70 31 26 36 40 44 29 35 36 44
67 27 5 4 5 14 47 54 35 13 15 15 19 21 23 23 24 23 20 22 22 23 23 21 28 26 24 25 29 34 44 70 78 70 70 52 27 34 48 48 28 28 30 41
78 59 19 5 4 5 11 37 56 56 52 26 17 17 23 25 27 28 27 26 24 26 28 30 28 28 31 28 27 29 34 46 59 72 84 38 24 31 40 49 26 28 29 32
77 82 52 15 5 4 6 10 20 44 54 60 61 52 27 20 20 26 34 38 29 33 35 39 37 44 43 46 37 37 39 41 40 51 74 58 26 28 29 26 25 27 30 33
80 96 62 45 12 5 5 6 10 17 26 49 59 59 65 46 23 23 22 36 45 49 49 54 59 54 60 55 62 51 51 43 39 36 26 26 30 32 35 38 36 34 31 31
80 100 92 61 33 9 5 5 6 9 10 18 30 51 51 44 36 32 30 32 44 49 57 66 74 68 68 66 57 55 49 52 54 52 37 40 40 44 38 42 46 45 41 37
85 100 100 74 61 25 7 5 5 7 10 14 17 28 43 51 42 30 29 29 39 46 52 60 60 63 72 61 53 53 53 45 42 47 39 39 43 57 65 61 57 52 50 46
91 99 99 98 68 56 20 7 5 7 12 15 14 14 23 35 49 55 52 46 40 40 48 55 54 46 66 76 52 33 36 42 46 47 41 38 39 42 54 61 58 55 59 56
87 100 100 100 92 68 50 16 13 14 15 11 11 11 13 21 28 40 40 37 37 41 45 45 43 42 68 86 63 36 44 52 54 33 31 28 28 34 37 44 53 64 56 67
90 100 100 99 100 83 69 40 17 9 8 13 17 15 16 22 30 35 38 37 37 38 40 42 44 47 60 68 52 41 44 40 34 25 18 17 32 28 37 42 46 51 66 65
75 85 100 98 98 100 82 62 35 13 11 14 21 19 18 17 21 30 37 42 46 49 53 55 52 57 64 64 42 39 39 30 21 19 17 14 13 28 34 39 39 46 73 77
81 75 92 98 93 98 98 82 58 31 19 18 18 17 22 23 21 27 34 44 51 54 55 58 58 54 40 31 36 31 28 26 24 18 14 12 13 20 34 39 36 54 78 83
100 100 97 97 95 99 98 82 64 45 34 28 26 24 28 31 34 40 44 55 51 50 44 46 45 18 20 29 32 23 18 12 11 12 13 13 18 25 40 31 35 51 47 47
100 99 100 100 99 99 99 89 69 45 43 37 33 25 25 37 41 42 50 54 43 50 50 48 45 17 16 27 27 24 30 28 23 22 16 14 24 40 37 31 39 51 52 47
99 99 98 100 100 99 99 84 49 58 33 32 32 23 20 26 36 45 46 39 38 42 51 49 34 12 15 24 29 24 20 20 25 28 22 21 26 39 42 36 37 48 37 25
99 99 98 98 97 97 96 71 43 56 46 43 36 34 28 32 40 46 34 37 42 45 48 36 14 13 12 18 25 28 24 27 35 36 34 31 25 28 32 36 32 24 20 11
98 98 97 98 87 90 70 67 67 54 43 30 23 28 21 32 35 34 33 37 40 44 44 18 14 12 14 15 19 22 25 26 36 40 35 24 25 27 26 23 20 17 11 7
97 97 95 81 75 76 75 63 57 55 55 27 24 32 31 28 33 33 36 38 36 33 15 14 14 14 17 18 20 22 23 28 35 35 36 40 32 26 27 25 22 16 8 6
97 96 91 74 80 82 85 82 70 55 38 31 30 42 37 37 33 38 29 28 21 16 13 12 12 10 12 15 18 20 24 27 31 34 38 42 43 40 29 27 25 20 11 7
97 90 67 78 85 90 90 87 86 56 41 42 42 40 33 34 36 40 26 19 19 30 16 12 11 12 12 11 12 15 17 21 22 29 38 41 39 45 37 29 27 24 15 8

GFSNW_700_rhum_108.txt.gz
RH
14 14 16 20 24 25 25 23 26 30 29 24 26 37 44 50 52 55 60 61 62 67 69 72 72 71 66 65 66 70 60 64 64 54 67 73 72 77 84 65 69 81 80 65
28 20 14 15 19 21 25 23 28 30 30 32 34 44 49 51 51 48 49 56 58 58 58 59 54 53 53 54 56 55 48 59 68 44 55 59 61 55 63 71 75 83 66 47
5 11 30 12 14 19 20 23 29 33 34 34 36 36 40 42 48 48 45 47 49 49 50 47 45 42 41 37 35 37 40 39 42 47 40 40 56 64 68 74 84 60 68 52
30 6 4 32 13 12 16 20 24 25 32 32 34 34 36 37 38 40 40 40 41 40 36 34 32 27 24 26 30 35 52 45 38 33 31 42 48 47 62 94 46 72 48 61
50 38 8 4 18 21 11 15 20 24 28 29 32 33 34 36 37 40 41 45 44 42 42 45 44 37 35 39 36 45 54 64 57 46 32 37 36 38 40 43 44 65 65 36
50 47 44 12 4 12 34 13 14 17 20 24 27 28 27 29 30 32 34 38 38 37 38 37 38 38 38 41 47 55 68 70 74 77 49 50 41 30 28 29 30 34 65 26
49 52 49 47 14 4 5 29 32 14 13 16 19 22 24 25 26 28 29 29 30 31 34 33 31 27 25 28 35 46 56 70 84 96 59 44 18 22 27 30 33 36 34 37
49 53 58 55 49 13 5 5 11 40 43 26 14 14 17 20 22 24 24 24 25 25 25 26 23 21 21 21 25 32 48 74 99 96 81 40 28 29 31 34 27 34 30 30
49 56 61 62 63 48 13 6 5 6 13 31 45 42 22 14 14 16 18 21 23 25 27 29 33 32 23 23 22 26 36 61 95 100 85 43 28 28 32 32 38 30 31 32
50 54 65 68 68 69 48 15 7 6 6 10 18 43 49 50 47 38 26 19 18 25 31 39 42 38 32 30 29 31 37 53 68 100 99 67 31 36 32 40 33 43 43 47
55 58 66 76 78 78 74 53 25 9 8 7 9 10 26 46 54 55 56 53 36 24 34 38 37 42 37 39 34 37 41 45 52 86 100 80 26 30 34 38 41 50 49 48
64 64 72 79 95 90 87 81 63 44 17 10 10 10 12 15 20 36 49 61 60 39 34 40 42 44 52 49 64 44 50 38 42 42 34 30 33 38 45 50 52 57 56 52
76 71 76 81 96 99 91 86 86 73 55 38 18 13 11 13 15 26 39 46 58 51 45 45 49 47 48 60 46 42 43 42 51 48 30 35 42 48 51 53 46 42 42 48
83 82 82 79 97 100 95 89 90 91 83 59 19 18 17 16 14 14 16 24 44 53 47 42 47 52 50 54 45 42 42 47 40 40 30 41 41 42 36 35 34 35 40 45
85 90 88 78 81 92 99 97 94 90 78 59 64 62 46 26 21 15 16 23 32 38 40 46 53 58 60 52 46 15 18 20 31 27 33 37 36 29 20 16 18 19 21 31
87 86 84 86 75 79 97 99 90 89 96 99 90 74 63 54 20 15 14 15 21 41 41 47 54 53 59 49 34 8 14 20 24 23 31 32 24 20 22 21 19 15 15 22
76 82 82 81 70 80 98 99 100 100 99 98 88 78 41 18 39 33 25 23 22 26 33 30 32 37 50 41 20 12 18 19 18 27 28 26 25 23 21 16 14 13 14 24
90 87 85 77 68 71 90 100 100 99 100 100 89 70 62 54 51 44 37 29 28 28 32 28 27 31 40 27 12 14 10 9 20 29 24 19 23 25 24 17 12 13 16 26
99 93 87 80 76 74 71 86 100 100 100 100 96 74 77 60 56 51 42 36 37 43 39 37 42 37 22 14 13 13 14 12 20 22 19 22 22 25 25 15 13 17 22 22
86 87 99 100 87 84 95 99 96 100 100 99 84 55 66 61 60 59 57 50 46 52 44 45 45 24 20 22 13 12 11 13 18 22 21 20 22 24 27 25 17 18 20 22
76 96 99 100 100 99 97 98 100 95 99 85 64 58 60 63 68 71 62 52 49 50 48 49 38 29 23 20 12 9 5 10 18 19 18 17 20 24 27 29 28 24 26 29
29 63 98 98 97 98 96 94 91 91 88 79 62 61 61 59 62 71 64 58 60 50 54 45 27 27 19 18 12 7 6 8 14 18 16 14 16 24 29 31 29 27 32 38
34 90 96 98 95 95 98 92 85 87 75 68 60 58 55 53 56 68 60 53 48 53 46 34 36 28 18 14 11 7 7 8 9 10 12 14 18 26 27 30 29 27 27 26
92 99 99 94 93 85 74 66 66 71 74 75 72 63 57 59 63 64 55 54 48 42 46 36 32 23 17 13 10 9 9 10 9 8 9 13 15 21 27 31 34 33 29 27
99 98 96 74 55 62 68 77 81 90 97 97 96 95 89 82 86 60 59 46 38 35 28 20 17 28 34 29 14 9 9 10 10 9 10 11 12 15 22 29 33 36 39 38
95 97 75 63 68 48 74 90 88 89 97 96 97 96 96 96 93 75 45 42 38 35 35 29 25 27 34 30 19 10 12 12 12 13 14 14 13 13 14 16 23 34 37 38
97 76 45 30 36 56 50 50 81 99 99 98 98 91 91 95 93 80 68 56 51 42 41 43 45 44 52 42 32 52 63 66 53 27 26 22 20 21 20 19 19 20 29 38

GFSNW_700_rhum_114.txt.gz
RH
12 12 16 17 21 23 21 21 23 25 23 19 16 20 22 20 22 25 33 36 45 67 50 62 66 74 51 42 39 81 37 64 64 53 67 62 76 86 81 70 54 62 61 61
48 32 7 18 13 19 25 22 25 25 20 23 25 30 34 30 33 32 36 41 38 40 47 64 46 39 35 29 23 22 29 57 46 67 59 55 51 42 47 64 71 71 71 45
39 46 45 12 14 10 17 20 23 26 26 21 26 27 30 34 36 36 36 35 36 34 35 36 44 33 26 20 19 22 25 27 28 35 31 48 54 56 64 65 76 72 63 48
26 37 44 49 20 12 12 15 20 21 24 25 24 25 26 27 28 30 30 31 30 31 46 33 30 26 20 20 22 26 32 32 33 32 28 30 31 31 36 58 64 75 29 55
25 26 33 44 51 28 11 14 15 19 23 25 28 29 26 25 26 28 27 29 28 29 31 37 46 34 34 42 27 33 36 42 49 37 26 42 50 22 29 37 33 63 61 36
24 28 29 36 48 53 29 8 18 18 16 19 22 27 28 29 28 27 28 29 28 28 28 29 29 29 30 32 36 36 55 58 77 82 59 59 43 23 29 36 29 28 46 17
28 31 33 36 44 54 57 38 8 10 16 25 18 16 20 24 24 25 25 27 27 22 26 24 24 22 21 21 22 31 58 83 95 90 69 90 39 30 23 30 31 29 21 22
31 34 37 39 45 55 64 67 47 13 8 8 13 32 28 16 15 19 21 22 21 24 25 24 24 22 27 23 25 27 43 72 90 88 85 57 38 29 23 18 20 22 24 28
38 41 40 51 52 58 66 70 76 67 38 16 8 9 10 19 39 40 31 20 16 17 22 29 40 40 32 31 25 22 32 66 98 88 82 76 42 35 26 33 28 24 22 22
52 44 50 55 67 64 65 75 71 72 77 50 43 26 10 11 16 23 30 33 51 48 42 38 51 52 43 33 38 36 35 76 87 100 92 73 33 37 46 48 25 30 32 27
57 54 57 65 75 77 73 71 80 75 69 70 60 54 59 25 16 16 32 39 39 51 54 54 55 60 47 44 35 35 36 35 73 99 96 80 32 30 38 27 27 30 33 37
58 57 66 68 80 82 80 74 72 71 72 70 70 68 59 32 34 18 16 24 40 48 46 56 62 64 57 47 55 45 49 36 46 46 28 25 27 27 34 39 37 37 38 41
60 58 61 67 75 85 82 78 74 70 61 61 68 46 42 42 56 31 28 35 39 31 31 49 68 74 64 72 48 51 61 50 46 40 21 26 36 33 34 36 41 38 39 41
63 61 60 63 66 76 84 82 78 77 74 64 69 65 60 62 65 70 76 76 61 35 29 39 48 57 45 59 48 41 41 38 30 24 18 20 20 21 22 26 33 35 36 22
64 62 65 67 64 64 72 75 78 77 77 75 61 54 56 61 60 56 62 72 72 64 45 35 29 30 47 37 33 27 30 27 29 19 19 23 23 20 20 23 33 37 29 22
62 62 77 77 73 67 69 70 73 82 85 84 69 52 47 46 43 35 38 36 44 47 36 30 31 34 53 49 37 39 39 36 34 26 24 23 25 22 20 26 31 28 24 25
52 53 68 80 86 80 77 80 89 94 93 96 95 75 49 53 52 50 50 55 56 56 48 49 46 44 52 54 43 34 42 37 24 20 16 13 16 16 21 31 30 25 23 23
30 56 72 100 100 100 88 78 96 100 100 100 100 92 76 51 55 58 61 62 62 62 60 57 53 55 53 43 31 38 40 33 30 25 24 17 15 13 23 24 19 22 22 24
16 61 88 93 98 99 93 88 88 89 100 100 100 99 92 81 61 60 68 73 76 72 70 63 66 67 44 31 36 38 37 41 42 42 40 29 24 18 18 18 20 18 20 21
9 19 33 49 57 73 91 94 87 80 79 96 91 75 84 86 92 96 93 86 80 73 72 71 66 53 39 36 40 39 27 23 25 27 32 37 32 23 20 20 16 14 16 20
7 8 12 17 23 35 76 97 100 100 100 97 73 60 69 94 99 100 99 97 82 72 78 78 65 55 38 37 41 40 37 33 27 16 17 22 32 29 23 20 17 14 15 23
9 13 12 16 26 33 61 97 100 99 96 77 69 78 84 85 94 99 98 98 94 77 87 79 60 50 41 45 43 36 27 20 17 10 7 8 21 28 23 19 16 16 20 26
14 17 20 47 40 33 99 100 94 66 78 79 79 78 78 79 86 100 96 100 92 90 81 67 52 46 39 36 27 22 22 18 12 11 12 12 17 18 14 12 16 16 16 21
56 57 59 46 40 60 24 16 23 47 65 84 90 92 99 96 96 96 96 97 95 93 68 57 51 62 66 69 50 33 22 20 22 21 19 17 14 12 12 13 16 16 12 14
94 80 52 16 9 9 12 27 45 72 96 100 99 80 65 80 91 80 93 96 94 84 62 51 51 66 85 77 78 56 56 62 57 73 76 50 20 37 57 58 58 62 67 37
100 93 38 16 14 10 13 19 26 35 53 68 74 85 90 85 90 83 78 92 77 59 57 56 47 63 75 48 66 76 66 68 80 83 89 77 35 28 48 54 53 51 54 67
99 60 28 18 21 16 30 30 36 47 62 84 98 100 91 88 92 87 84 78 68 66 67 43 34 68 49 39 55 71 80 79 83 89 86 85 72 45 33 42 50 63 63 53

GFSNW_700_rhum_117.txt.gz
RH
44 30 14 13 16 17 15 18 21 23 20 18 16 20 23 25 31 36 48 54 54 58 54 59 60 49 41 32 32 32 29 59 48 34 57 63 65 62 71 64 55 65 67 59
31 38 41 10 11 14 17 16 19 20 19 21 19 25 31 30 33 35 37 40 41 42 47 47 41 36 32 29 27 27 35 42 39 59 60 63 64 43 46 67 80 76 75 41
20 25 35 44 16 12 12 15 17 19 21 20 23 26 30 32 33 33 32 32 33 34 35 35 37 32 28 26 22 24 28 29 24 19 23 38 51 44 45 56 65 61 58 31
20 22 30 38 46 18 11 12 16 17 18 20 21 22 24 26 26 28 29 30 31 31 34 35 34 30 24 23 24 27 32 29 30 28 28 32 34 31 31 49 42 74 21 42
21 19 21 33 43 50 24 9 14 14 19 20 21 21 23 25 26 28 29 28 28 28 32 33 33 34 34 33 30 36 42 41 46 40 27 32 31 20 23 26 32 56 43 30
33 31 27 24 41 49 55 39 13 12 18 17 18 20 23 23 26 24 24 25 26 27 26 28 30 31 30 35 35 38 51 52 60 53 41 35 29 21 23 20 15 27 39 12
44 42 38 33 33 47 55 62 52 18 9 9 16 23 20 19 21 26 24 25 24 22 23 21 21 19 18 19 21 34 50 73 87 82 58 84 20 26 26 29 24 24 22 18
50 51 48 40 39 46 58 64 67 67 49 23 9 9 16 26 28 20 16 17 19 20 20 18 16 15 19 22 24 28 38 59 80 71 92 40 18 22 21 20 17 20 20 21
51 52 50 49 49 52 56 64 72 65 66 60 36 13 20 10 10 13 26 42 44 32 36 34 32 27 31 31 29 23 29 59 79 90 91 81 24 25 26 31 23 19 22 25
47 51 51 49 57 56 61 61 67 73 73 73 68 62 32 20 32 14 11 14 21 28 44 50 47 46 43 39 35 32 35 58 81 100 91 56 20 30 33 41 22 26 29 29
47 48 53 50 54 57 58 63 64 66 65 69 74 73 73 74 71 56 22 17 24 30 40 50 52 65 54 49 42 38 40 38 57 99 95 68 28 24 29 28 32 35 37 35
53 52 50 54 52 54 54 58 60 60 64 66 66 70 63 62 55 41 30 23 17 24 31 36 41 47 56 52 59 46 46 33 35 38 22 18 18 22 27 31 34 39 45 46
57 55 52 53 54 52 55 56 56 54 51 58 65 71 60 67 68 67 63 56 58 60 55 55 54 50 45 49 39 40 48 41 42 40 28 30 32 31 30 37 36 36 38 39
60 60 53 52 57 52 52 55 59 59 56 51 62 68 69 64 62 66 68 70 72 73 74 64 52 50 51 33 30 34 39 42 45 42 39 40 36 29 26 28 28 29 36 39
60 58 58 51 55 54 49 50 55 63 65 58 49 50 51 55 58 55 57 54 54 71 80 73 66 65 59 46 45 35 40 39 45 45 46 48 38 33 32 28 28 29 32 36
64 60 56 56 54 56 53 48 56 71 78 76 60 52 47 45 44 53 48 62 59 58 53 53 54 49 57 57 44 26 36 39 44 44 41 38 26 29 25 25 24 26 29 30
61 55 51 44 40 42 70 62 76 88 90 94 97 78 53 49 56 54 50 51 55 60 64 59 57 55 63 65 40 29 36 42 47 46 46 41 38 32 24 19 17 19 27 27
23 19 16 16 15 29 51 67 97 100 98 100 99 97 78 62 54 58 59 62 64 64 69 69 65 67 70 55 28 36 42 45 43 38 34 36 42 45 40 26 22 22 20 19
4 5 5 4 6 11 28 52 80 97 99 100 100 97 94 91 79 72 72 75 83 77 79 80 81 88 64 40 46 47 46 45 44 40 33 30 26 28 45 32 31 20 20 20
3 3 3 3 4 7 9 22 30 30 37 73 67 56 82 89 98 100 100 96 88 84 81 82 79 68 45 49 49 47 43 42 44 42 38 27 21 22 41 39 29 25 22 20
4 4 4 5 5 5 7 16 64 86 90 67 61 70 78 92 98 100 98 99 94 92 86 86 91 63 55 52 43 44 43 25 24 26 21 16 13 16 42 38 31 26 22 18
7 7 8 6 7 10 15 87 89 82 81 63 72 85 89 84 87 96 100 97 94 89 95 96 73 60 55 65 65 55 48 36 30 26 22 22 20 25 37 37 26 18 16 16
11 11 10 10 18 17 96 96 74 50 63 67 75 78 81 90 93 100 97 98 95 91 95 83 62 58 64 70 73 72 73 61 68 65 53 61 64 56 42 33 29 17 27 33
18 19 16 15 21 29 10 10 17 36 37 65 76 93 97 97 96 88 90 96 95 96 90 62 42 64 70 72 63 72 82 84 87 83 82 80 86 91 88 46 26 38 52 54
70 49 26 14 11 9 10 20 24 37 60 91 91 97 98 91 88 66 64 84 88 75 37 40 60 63 60 60 49 43 50 67 66 73 70 69 75 82 90 80 69 42 35 45
100 72 30 12 12 12 13 14 17 27 60 86 95 100 98 86 80 68 61 64 48 30 30 21 45 60 67 66 54 30 31 54 40 44 66 30 36 74 77 72 72 78 77 41
100 65 27 20 22 17 27 37 45 65 80 100 100 92 87 86 89 80 67 56 44 49 55 76 67 49 19 12 12 12 30 40 38 38 40 38 33 63 69 53 53 67 91 77

GFSNW_700_rhum_120.txt.gz
RH
34 45 22 11 12 14 15 13 18 14 14 11 10 18 22 26 31 36 42 47 46 51 52 52 49 42 44 32 31 32 26 42 36 27 31 48 60 71 70 62 51 66 74 49
26 31 44 36 11 10 13 14 16 17 17 16 16 20 24 28 34 36 38 38 43 42 43 42 38 36 32 26 24 27 33 30 32 35 49 52 56 36 51 68 71 72 70 37
26 22 30 42 40 11 10 12 14 17 19 20 23 24 25 28 30 30 31 32 32 32 33 35 34 30 28 24 22 23 26 28 24 16 17 24 41 32 38 59 87 69 62 42
36 34 24 29 43 44 13 11 13 14 15 17 19 22 23 26 27 30 30 32 32 35 38 38 36 32 30 28 28 30 38 33 30 26 27 30 30 31 34 46 46 71 22 34
39 42 36 30 33 46 46 16 11 12 14 15 17 18 22 23 26 27 28 31 32 32 31 32 34 36 36 36 32 37 44 45 44 38 24 30 34 25 25 29 33 43 29 27
42 43 42 34 35 38 46 54 31 10 12 14 15 14 17 19 20 20 22 24 25 26 28 29 31 30 29 35 37 46 62 60 59 48 38 39 30 14 17 21 24 27 30 18
42 41 42 41 40 44 43 50 57 53 26 10 10 10 17 20 18 17 17 20 20 22 23 21 20 18 16 19 24 31 43 57 76 74 53 65 17 19 19 22 18 22 19 18
45 40 42 41 41 45 48 49 57 60 62 62 22 18 8 10 12 15 20 23 23 22 21 21 19 22 26 26 28 29 34 52 79 74 90 34 21 19 21 22 16 20 19 22
45 44 43 43 42 42 45 48 52 61 63 63 62 62 60 55 27 13 12 14 18 28 36 39 44 38 35 34 31 30 31 50 70 82 82 62 22 21 22 26 22 18 24 29
43 46 44 44 45 44 44 46 48 53 59 65 63 66 73 66 42 66 46 35 18 22 29 40 48 44 43 41 36 32 36 52 61 74 94 46 16 23 25 31 22 28 29 30
53 56 50 46 45 45 45 45 46 48 51 58 66 63 64 61 65 67 60 42 29 28 35 35 35 45 42 42 39 34 36 39 52 94 98 61 19 23 31 32 33 33 31 33
59 59 55 50 47 46 45 46 45 45 47 50 51 57 63 54 57 63 64 56 34 25 27 35 40 43 46 45 48 45 42 32 33 37 32 32 39 40 42 42 41 38 36 38
65 62 57 55 50 46 44 44 46 45 42 47 50 51 62 63 62 63 62 58 68 69 63 46 54 63 66 58 50 52 45 43 46 44 37 44 48 48 45 42 37 28 26 29
69 66 60 58 55 53 49 47 46 48 49 46 51 59 56 57 54 51 52 60 60 63 75 81 82 77 71 64 61 57 56 53 46 47 42 50 47 48 51 46 41 38 35 34
71 69 64 62 60 56 52 48 46 50 51 50 49 47 50 50 51 49 52 54 57 60 66 66 72 71 82 74 58 40 43 44 47 50 48 56 47 45 41 37 33 32 26 23
78 76 73 68 62 56 50 43 46 57 70 64 58 51 41 41 38 42 54 54 58 63 67 65 67 64 77 83 59 41 47 47 54 56 51 51 43 43 39 45 40 34 30 26
71 71 66 58 50 43 35 43 39 34 52 88 77 51 41 44 53 60 61 59 57 62 71 67 66 66 74 77 51 39 55 64 69 63 57 48 41 35 29 29 35 43 37 26
53 40 27 21 18 17 16 17 22 42 70 96 98 70 46 44 42 46 54 64 69 71 76 79 75 78 76 64 52 60 57 48 44 41 43 42 42 43 41 36 31 32 42 30
10 7 5 5 6 6 6 8 7 17 61 93 92 65 66 51 43 46 50 64 86 83 92 88 91 96 62 61 52 48 46 43 42 34 31 30 28 28 29 24 23 35 39 26
3 3 3 4 4 6 7 8 7 10 26 47 28 22 51 58 74 77 84 84 75 85 86 86 94 64 61 52 54 55 56 48 38 36 33 25 22 21 17 17 37 44 31 28
5 4 4 5 5 6 7 8 21 40 38 33 35 74 73 87 83 100 98 93 87 94 88 89 91 64 60 57 63 72 74 68 66 64 70 66 70 48 42 49 47 41 30 23
8 8 8 7 10 11 9 54 66 36 47 44 59 77 88 88 85 91 96 97 96 95 100 98 81 45 57 63 67 69 72 78 76 64 67 77 78 68 78 80 73 61 50 58
13 12 12 10 13 14 30 39 37 41 48 60 77 80 76 73 81 90 88 99 98 91 100 92 39 30 59 70 70 72 82 88 71 50 41 56 61 87 88 84 75 84 90 46
21 22 18 12 14 16 8 11 17 30 38 63 80 85 86 87 91 96 96 96 97 98 91 54 12 41 45 71 77 91 83 70 68 65 40 16 36 53 51 49 47 58 77 92
67 44 22 14 12 9 10 12 17 30 46 58 72 89 92 94 99 89 74 66 51 66 31 22 45 66 72 64 33 25 36 56 56 26 11 8 18 34 34 42 39 34 28 55
100 72 29 16 14 12 12 14 18 36 72 81 93 87 90 76 72 58 48 42 36 28 28 37 44 39 35 36 25 50 60 64 33 11 16 16 24 50 49 46 53 51 40 30
98 66 39 30 23 18 24 28 40 51 52 90 95 87 86 75 80 79 69 56 41 46 58 65 63 50 48 41 35 31 33 21 24 48 60 59 57 51 45 41 44 56 64 58

GFSNW_700_rhum_126.txt.gz
RH
37 32 42 45 12 14 15 17 13 11 11 12 16 21 24 26 29 30 28 26 22 36 38 40 41 43 44 40 38 34 32 34 32 39 34 41 41 47 49 54 48 57 72 38
41 36 34 41 46 13 14 15 16 17 16 15 17 22 27 31 35 38 36 37 38 40 40 40 41 38 33 29 26 24 23 23 19 23 33 31 34 25 34 46 58 62 58 30
35 39 37 38 45 44 15 14 15 17 18 19 21 23 25 26 28 28 30 31 31 33 32 30 28 27 23 21 18 18 19 19 17 13 14 19 24 24 29 40 71 59 50 25
36 34 36 40 42 44 44 22 13 14 15 15 17 19 20 22 20 23 23 24 26 26 27 27 26 26 26 24 22 23 27 26 23 21 22 28 27 26 32 43 38 58 13 27
36 37 34 36 39 42 48 52 29 16 14 14 14 14 16 18 19 20 20 22 22 22 24 25 26 26 26 28 26 32 39 44 43 26 21 26 25 22 24 30 35 38 24 24
30 32 36 37 36 39 44 50 56 54 30 16 12 12 13 14 15 18 18 20 21 22 24 23 24 25 27 29 32 37 51 52 53 46 36 33 27 18 16 20 22 24 26 21
11 20 24 33 39 37 40 44 49 56 61 60 53 31 12 13 13 15 16 17 18 17 18 19 20 20 21 24 27 32 41 53 66 56 36 50 20 20 20 18 22 26 27 30
8 10 17 26 38 41 38 40 43 48 54 62 58 65 66 49 36 45 48 14 11 11 13 17 22 30 28 28 30 29 29 40 56 55 67 28 25 20 22 23 36 26 28 34
7 10 16 21 31 43 43 40 41 42 44 49 58 61 67 69 68 61 26 33 50 48 29 19 21 30 33 32 35 34 40 52 68 75 67 52 22 28 30 32 31 25 29 38
8 9 12 15 20 35 47 45 43 43 43 43 46 51 61 62 66 65 66 72 69 55 43 33 28 30 33 36 34 32 37 49 60 87 92 34 31 32 40 44 41 45 47 50
10 12 20 24 26 33 44 47 47 46 46 47 49 46 48 52 59 69 61 60 52 48 38 34 32 37 37 38 37 42 46 44 52 82 96 57 35 42 47 51 53 52 51 51
18 25 25 29 37 42 49 53 52 50 48 49 48 44 44 46 55 58 63 65 68 67 60 50 42 40 44 46 50 50 54 52 43 42 37 41 48 51 55 59 55 50 52 48
21 24 37 51 52 55 58 56 56 53 50 48 45 44 45 50 58 58 60 65 74 78 80 79 78 67 62 61 58 60 61 61 58 56 43 52 55 58 61 59 57 56 54 51
21 23 37 52 58 59 58 58 59 59 55 51 44 44 44 42 49 53 65 70 66 68 75 80 79 74 72 75 72 64 67 69 67 65 57 60 53 54 61 62 55 49 47 44
64 66 56 52 52 52 54 57 61 62 55 47 44 44 42 40 43 53 64 68 77 81 87 85 79 73 84 82 77 54 57 58 63 71 74 81 74 59 43 39 36 38 38 36
68 67 58 57 62 61 64 56 56 59 58 52 44 39 35 31 30 32 40 46 64 70 74 82 89 84 94 92 76 55 56 59 62 67 75 62 43 49 47 39 39 39 34 29
73 78 75 75 80 72 73 66 60 58 52 40 31 29 27 28 42 41 39 52 70 79 74 78 82 82 91 89 76 54 69 72 75 72 51 54 62 49 52 54 54 49 44 45
96 85 100 90 78 74 69 56 42 33 24 21 23 26 31 32 30 33 36 45 52 59 66 64 68 74 75 65 50 64 69 66 62 65 71 70 64 58 57 60 58 56 61 59
93 100 99 97 79 71 54 41 23 15 15 16 16 20 21 26 28 31 35 42 47 52 53 59 69 73 54 53 67 75 70 69 71 75 73 68 64 61 63 62 63 57 49 47
99 98 95 80 61 37 24 16 14 11 14 13 17 20 23 33 36 50 48 58 67 84 82 83 92 55 33 40 76 89 77 72 71 71 72 70 69 67 70 79 75 65 50 32
96 84 57 41 19 12 8 8 11 19 19 23 23 24 24 38 47 50 50 73 79 82 92 78 91 45 30 29 49 78 78 73 73 77 83 88 86 80 72 73 69 60 50 25
37 26 19 10 9 9 10 15 19 14 18 26 24 44 62 80 80 95 96 89 73 72 79 73 50 33 37 64 71 68 67 69 73 80 82 83 85 84 81 77 57 28 21 21
14 12 11 10 15 13 12 20 20 18 18 32 64 87 92 92 90 83 66 68 61 50 69 66 34 32 38 66 83 78 75 73 73 72 76 77 79 80 73 47 31 24 14 15
27 19 16 12 14 15 12 13 13 23 41 66 81 97 100 96 91 68 48 52 64 81 80 37 38 48 59 65 78 96 95 91 83 77 72 71 63 56 44 36 30 19 17 12
32 24 17 13 15 10 11 11 13 18 25 66 97 100 100 100 97 81 61 49 44 95 51 48 41 41 40 44 56 52 61 62 48 47 46 38 33 29 26 24 20 16 11 9
53 33 16 18 14 12 11 12 22 38 49 62 82 92 84 69 76 65 58 51 41 33 34 50 63 63 53 52 50 46 39 30 23 22 20 18 17 16 15 15 19 25 35 27
87 58 42 33 32 30 27 30 33 41 45 50 59 64 51 40 47 51 51 38 21 28 42 49 43 38 34 28 21 17 16 16 16 16 18 22 22 21 21 20 21 30 42 50

GFSNW_700_rhum_129.txt.gz
RH
40 38 38 48 17 11 13 14 12 12 13 14 14 24 30 29 24 20 20 22 22 22 24 23 31 29 34 31 31 35 32 31 27 37 28 35 35 35 40 43 41 53 60 26
37 38 40 40 46 22 11 12 16 17 15 17 18 22 24 24 28 29 28 27 28 30 32 32 32 32 28 31 27 22 20 21 20 23 32 31 36 25 32 40 51 53 46 20
32 35 36 39 41 44 26 12 13 14 16 20 23 23 26 27 28 28 30 31 30 29 27 25 25 24 24 24 22 21 21 20 17 12 15 19 22 20 25 35 58 42 37 20
26 29 34 36 38 41 44 37 18 13 15 17 20 21 22 21 21 24 26 27 27 26 25 25 27 27 27 27 27 25 27 28 23 21 22 26 23 26 35 44 38 50 25 25
20 22 21 34 36 38 43 48 44 25 15 14 16 17 20 20 20 20 20 21 23 24 26 25 26 26 29 28 29 31 34 36 31 16 15 22 23 22 24 28 35 40 25 23
7 13 16 20 35 36 38 43 48 51 48 40 19 13 14 18 21 21 20 20 21 19 23 21 22 23 25 27 28 31 36 36 36 29 26 27 23 21 21 22 23 26 28 27
7 7 9 14 22 34 37 37 41 44 50 52 50 40 18 18 13 16 19 21 21 20 20 20 19 19 19 20 22 26 33 42 50 43 33 47 19 22 20 22 30 33 32 35
8 7 8 10 13 20 33 38 38 40 42 48 52 58 56 59 51 49 47 46 21 15 15 20 20 24 26 24 30 33 34 40 47 48 50 26 24 22 26 29 35 30 30 36
8 7 8 9 10 13 22 35 39 41 41 43 44 52 56 60 59 61 61 35 25 38 38 37 26 24 32 31 33 35 39 45 56 64 58 46 22 33 35 44 42 32 34 39
8 8 8 9 11 13 15 22 40 44 42 43 45 48 49 49 52 54 61 63 67 68 60 48 36 29 31 38 36 34 43 56 66 77 72 39 31 34 45 48 45 45 51 54
9 9 9 12 15 17 19 21 24 39 46 47 45 47 48 48 49 53 58 63 55 55 49 37 36 38 37 39 39 37 40 47 58 90 98 58 34 42 54 58 56 57 55 52
11 12 14 19 22 22 28 31 35 41 49 50 50 48 43 45 47 50 57 65 60 63 59 53 63 55 53 45 49 49 52 48 48 50 40 40 45 50 58 62 58 55 53 51
15 21 24 25 27 33 40 48 50 49 50 50 46 46 48 45 46 52 62 61 67 69 74 77 79 78 74 67 60 58 58 59 61 58 52 53 58 65 66 63 66 61 42 34
21 24 24 25 39 54 55 52 48 47 44 44 42 45 47 46 46 44 48 64 66 74 74 76 76 74 75 73 70 64 66 71 70 69 70 69 65 66 68 64 47 35 38 44
26 27 33 52 63 57 52 52 51 51 52 49 48 47 45 42 41 42 46 60 77 80 84 80 74 74 91 90 79 49 58 73 74 74 75 80 82 74 47 43 41 45 50 51
38 58 60 64 65 63 61 59 58 57 58 58 54 44 43 42 37 32 33 38 55 79 80 81 79 73 92 94 75 58 62 62 72 84 90 93 65 56 69 70 64 64 64 65
60 82 75 72 65 63 82 78 73 74 70 60 45 47 40 36 34 35 42 46 52 73 86 83 82 79 91 96 78 62 61 70 82 88 90 65 76 79 69 62 58 59 56 53
98 90 86 82 77 70 76 81 73 67 58 49 39 41 43 39 33 33 34 34 38 50 67 66 76 82 82 77 52 61 62 69 80 77 70 72 73 70 65 65 67 71 73 71
99 98 86 93 84 73 87 77 71 57 39 24 34 37 28 30 29 28 33 42 46 47 52 61 69 70 54 58 76 78 80 74 72 75 78 78 74 71 70 71 71 73 70 64
96 97 94 95 81 79 72 57 45 35 29 26 32 33 27 36 36 40 51 60 53 69 69 79 86 50 49 60 82 84 87 84 78 78 77 76 74 74 75 74 74 74 76 76
95 97 95 90 84 72 54 36 27 26 26 30 29 26 24 34 38 48 52 51 67 90 92 79 81 42 31 36 38 70 85 79 74 76 77 78 78 75 73 73 74 74 72 65
96 95 90 79 47 31 28 14 16 17 18 22 21 22 28 35 56 80 96 87 91 91 89 80 51 25 22 20 29 53 68 83 87 89 84 80 78 79 78 76 76 74 67 58
94 70 32 32 34 24 12 15 17 19 16 17 21 39 60 82 100 100 96 91 77 51 68 50 22 23 25 33 52 68 79 88 90 85 84 81 77 68 72 59 37 29 24 23
62 34 17 20 23 21 20 15 16 19 20 36 61 97 100 100 97 100 76 68 56 67 73 24 16 27 38 42 58 77 80 88 82 69 53 43 37 30 27 22 16 14 13 13
66 56 41 31 24 18 15 13 14 17 21 41 82 100 98 100 97 92 92 68 38 41 25 25 23 33 48 52 59 61 60 59 48 31 20 14 14 18 17 16 15 15 16 16
35 31 25 22 17 17 16 17 21 25 26 34 63 85 86 86 89 84 82 63 38 30 29 31 32 42 58 68 64 49 34 23 16 14 14 16 17 17 16 16 22 38 52 54
75 57 38 27 23 24 26 30 46 42 42 50 61 61 51 42 57 63 62 41 22 28 33 38 36 37 44 41 31 30 23 17 16 16 18 16 18 19 50 63 53 65 70 72